Regional Weather Roundup
Issued by NWS

Home | Current Version | Previous Version | Text Only | Print | Product List | Glossary On
Versions: 1 2 3 4 5 6 7 8 9 10 11 12 13 14 15 16 17 18 19 20 21 22 23 24 25 26 27 28 29 30 31 32 33 34 35 36 37 38 39 40 41 42 43 44 45 46 47 48 49 50
000
ASUS46 KPQR 200410
RWROR

OREGON REGIONAL WEATHER ROUNDUP
NATIONAL WEATHER SERVICE PORTLAND OR
800 PM PST FRI DEC 19 2014

NOTE: "FAIR" INDICATES FEW OR NO CLOUDS BELOW 12,000 FEET WITH
NO SIGNIFICANT WEATHER AND/OR OBSTRUCTIONS TO VISIBILITY.

ORZ001>013-200500-
NORTHWEST OREGON


CITY           SKY/WX    TMP DP  RH WIND       PRES   REMARKS
ASTORIA        CLOUDY    47  42  83 SE5       29.89F
NEWPORT        DRIZZLE   48  46  93 SE7       29.96F
PORTLAND       LGT RAIN  48  44  86 SE10      29.99S
VANCOUVER WA   LGT RAIN  49  43  80 SE9       29.98F
SCAPPOOSE      LGT RAIN  47  44  90 S5        29.96F
HILLSBORO      CLOUDY    48  45  89 SE10      29.96F
AURORA         CLOUDY    47  44  90 SE5       29.98F
MCMINNVILLE    CLOUDY    48  45  89 SE10      29.97F
SALEM          CLOUDY    48  44  86 SE7       29.96F
CORVALLIS      CLOUDY    48  45  87 SE10      29.98F
EUGENE         CLOUDY    48  45  89 SE7       29.99F
$$

ORZ021-028-200500-
SOUTHWEST OREGON


CITY           SKY/WX    TMP DP  RH WIND       PRES   REMARKS
NORTH BEND     CLOUDY    52  48  87 S6        30.00S
BROOKINGS      RAIN      51  51 100 SE7       30.04S FOG
ROSEBURG       LGT RAIN  49  45  86 CALM      30.01R
SEXTON SUMMIT  FOG       37  37 100 S10G21    29.97R VSB 1/4 WCI  30
MEDFORD        CLOUDY    45  43  93 CALM      30.03F
$$

ORZ014>016-041-200500-
COLUMBIA GORGE


CITY           SKY/WX    TMP DP  RH WIND       PRES   REMARKS
TROUTDALE      LGT RAIN  48  43  82 E8        29.99S
THE DALLES     CLOUDY    40  37  89 E5        30.03R
$$

ORZ029>031-041-044-049-050-061>064-502-503-505>511-200500-
EASTERN OREGON


CITY           SKY/WX    TMP DP  RH WIND       PRES   REMARKS
REDMOND        CLOUDY    39  33  79 SE5       29.99S
BEND           CLOUDY    37  32  81 S7        30.00S WCI  32
PRINEVILLE     CLOUDY    39  34  81 CALM      30.00S
KLAMATH FALLS  CLOUDY    38  33  82 S9        30.03R WCI  31
LAKEVIEW       CLOUDY    36  32  87 S8        30.06S WCI  29
HERMISTON      MOCLDY    38  35  89 S3        30.03S
PENDLETON      PTCLDY    35  34  96 E5        30.02R WCI  31
JOHN DAY       PTCLDY    38  33  82 E3        30.03S
MEACHAM        PTCLDY    30  28  92 CALM      30.01R
LA GRANDE      PTCLDY    39  28  65 S7        30.04R WCI  34
BAKER CITY     MOCLDY    29  28  96 CALM      30.06R
BURNS          CLOUDY    32  29  88 CALM      30.04R
ROME             N/A     39  33  79 S8G16     30.06R WCI  33
ONTARIO        CLOUDY    38  36  92 CALM      30.10S
$$



USA.gov is the U.S. government's official web portal to all federal, state and local government web resources and services.